Location: Flitcham
(52.8000°N, 0.5667°E)
Time: 07:38:50
(UTC+00:00)

CZ-4C R/B - Pass Details

Date: 15 May 2026
Orbit: 474 x 1502 km, 63.4° (Epoch: 5 June)

Event Time Altitude Azimuth Distance (km) Brightness Sun altitude
Rises 20:52:51 0° 252° (WSW) 2,840 5.3 -8.2°
Reaches altitude 10° 20:54:57 10° 259° (W) 2,047 4.7 -8.4°
Maximum altitude 20:59:25 46° 333° (NNW) 1,031 3.3 -8.8°
Drops below altitude 10° 21:05:14 10° 46° (NE) 2,664 4.9 -9.4°
Sets 21:08:18 0° 52° (NE) 3,798 5.6 -9.7°
